SCP
0 0 0 0 0 0 0 0 0 0 0 0 0 0 0 0 0 0 0 0 0 0
0 0 0 0 0 0 0 0 0 0 0 0 0 0 0 0 0 0 0 0 0 0
0 0 0 0 0 0 0 0 0 0 0 0 0 0 0 0 0 0 0 0 0 0
0 0 0 0 0 0 0 0 0 0 0 0 0 0 0 0 0 0 0 0 0 0
0 0 0 0 0 0 0 0 0 0 0 0 0 0 0 0 0 0 0 0 0 0
0 0 0 0 0 0 0 0 0 0 0 0 0 0 0 0 0 0 0 0 0 0
0 0 0 0 0 0 0 0 0 0 0 0 0 0 0 0 0 0 0 0 0 0
0 0 0 0 0 0 0 0 0 0 0 0 0 0 0 0 0 0 0 0 0 0
0 0 0 0 0 0 0 0 0 0 0 0 0 0 0 0 0 0 0 0 0 0
0 0 0 0 0 0 0 0 0 0 0 0 0 0 0 0 0 0 0 0 0 0
0 0 0 0 0 0 0 0 0 0 0 0 0 0 0 0 0 0 0 0 0 0
0 0 0 0 0 0 0 0 0 0 0 0 0 0 0 0 0 0 0 0 0 0
0 0 0 0 0 0 0 0 0 0 0 0 0 0 0 0 0 0 0 0 0 0
0 0 0 0 0 0 0 0 0 0 0 0 0 0 0 0 0 0 0 0 0 0
Wind_Speed_500mb
69 68 64 57 51 40 35 32 27 23 22 24 27 32 36 38 38 38 36 34 34 34
74 71 65 58 52 46 43 37 28 25 25 26 28 31 35 38 38 40 38 37 38 39
74 66 59 57 55 52 45 37 29 26 25 25 28 32 36 39 39 42 42 42 43 44
71 62 58 55 51 48 44 37 31 26 24 26 31 35 38 41 43 45 47 46 48 51
66 57 52 51 47 46 44 39 31 24 25 30 36 39 42 43 46 50 53 55 56 58
62 54 47 45 46 45 41 35 27 23 27 33 38 44 46 49 54 59 61 62 63 65
59 49 43 41 41 36 30 27 25 26 31 37 42 49 54 58 64 67 70 70 71 72
51 43 39 39 35 29 29 29 30 34 39 43 47 54 59 63 69 75 77 75 72 70
50 43 42 38 35 37 37 39 40 40 45 47 52 59 63 70 75 78 76 73 71 69
51 49 45 44 44 44 46 46 44 47 49 53 60 65 71 72 78 74 70 68 72 73
58 56 50 49 51 54 52 47 47 50 55 61 67 70 69 73 71 69 69 72 74 77
57 51 50 53 55 52 49 48 52 52 58 66 65 64 68 66 68 73 75 76 80 84
57 55 56 54 52 49 48 49 49 57 60 61 63 64 62 62 66 74 76 79 80 73
34 34 37 41 43 43 43 46 53 57 55 55 61 63 60 61 65 68 75 77 73 69
Wind_Direction_500mb
214 215 217 220 223 225 231 240 255 279 287 304 313 318 323 330 334 331 331 328 324 321
212 213 216 219 223 230 233 239 255 275 284 299 307 312 317 322 328 326 327 323 320 317
213 214 219 224 229 231 231 239 260 269 283 297 309 314 316 319 323 323 323 322 318 315
213 217 223 228 231 229 235 242 260 269 283 301 310 315 316 317 319 319 318 318 316 314
212 215 220 224 226 228 238 248 254 265 290 304 312 316 315 313 313 314 316 316 314 312
208 210 219 229 236 237 234 238 246 268 286 303 314 313 311 310 311 313 312 311 311 310
203 206 218 226 224 215 222 235 253 267 286 300 308 309 309 310 310 309 308 308 308 306
200 211 212 205 204 209 223 237 250 264 278 290 303 305 305 305 307 305 303 304 305 302
206 214 202 203 207 218 229 240 252 265 278 291 299 300 301 302 301 301 302 305 306 303
207 201 206 211 218 227 236 245 257 269 283 289 294 296 297 299 298 299 303 306 304 302
208 212 216 222 228 233 239 247 261 273 281 287 293 295 297 298 299 299 302 301 299 298
224 231 233 234 234 233 243 255 262 273 283 289 293 297 296 296 299 301 305 304 302 303
237 240 239 232 231 236 244 256 272 284 289 291 294 296 296 302 304 304 305 302 305 308
203 201 209 218 229 241 256 275 287 290 291 294 299 298 305 304 302 302 302 303 309 305
Wind_Speed_850mb
69 68 64 57 51 40 35 32 27 23 22 24 27 32 36 38 38 38 36 34 34 34
74 71 65 58 52 46 43 37 28 25 25 26 28 31 35 38 38 40 38 37 38 39
74 66 59 57 55 52 45 37 29 26 25 25 28 32 36 39 39 42 42 42 43 44
71 62 58 55 51 48 44 37 31 26 24 26 31 35 38 41 43 45 47 46 48 51
66 57 52 51 47 46 44 39 31 24 25 30 36 39 42 43 46 50 53 55 56 58
62 54 47 45 46 45 41 35 27 23 27 33 38 44 46 49 54 59 61 62 63 65
59 49 43 41 41 36 30 27 25 26 31 37 42 49 54 58 64 67 70 70 71 72
51 43 39 39 35 29 29 29 30 34 39 43 47 54 59 63 69 75 77 75 72 70
50 43 42 38 35 37 37 39 40 40 45 47 52 59 63 70 75 78 76 73 71 69
51 49 45 44 44 44 46 46 44 47 49 53 60 65 71 72 78 74 70 68 72 73
58 56 50 49 51 54 52 47 47 50 55 61 67 70 69 73 71 69 69 72 74 77
57 51 50 53 55 52 49 48 52 52 58 66 65 64 68 66 68 73 75 76 80 84
57 55 56 54 52 49 48 49 49 57 60 61 63 64 62 62 66 74 76 79 80 73
34 34 37 41 43 43 43 46 53 57 55 55 61 63 60 61 65 68 75 77 73 69
Wind_Direction_850mb
214 215 217 220 223 225 231 240 255 279 287 304 313 318 323 330 334 331 331 328 324 321
212 213 216 219 223 230 233 239 255 275 284 299 307 312 317 322 328 326 327 323 320 317
213 214 219 224 229 231 231 239 260 269 283 297 309 314 316 319 323 323 323 322 318 315
213 217 223 228 231 229 235 242 260 269 283 301 310 315 316 317 319 319 318 318 316 314
212 215 220 224 226 228 238 248 254 265 290 304 312 316 315 313 313 314 316 316 314 312
208 210 219 229 236 237 234 238 246 268 286 303 314 313 311 310 311 313 312 311 311 310
203 206 218 226 224 215 222 235 253 267 286 300 308 309 309 310 310 309 308 308 308 306
200 211 212 205 204 209 223 237 250 264 278 290 303 305 305 305 307 305 303 304 305 302
206 214 202 203 207 218 229 240 252 265 278 291 299 300 301 302 301 301 302 305 306 303
207 201 206 211 218 227 236 245 257 269 283 289 294 296 297 299 298 299 303 306 304 302
208 212 216 222 228 233 239 247 261 273 281 287 293 295 297 298 299 299 302 301 299 298
224 231 233 234 234 233 243 255 262 273 283 289 293 297 296 296 299 301 305 304 302 303
237 240 239 232 231 236 244 256 272 284 289 291 294 296 296 302 304 304 305 302 305 308
203 201 209 218 229 241 256 275 287 290 291 294 299 298 305 304 302 302 302 303 309 305